Location: *
(23.5860°S, 65.4036°W)
Time: 15:11:37
(UTC+00:00)

Cosmos 2242 Rocket - Pass Details

Date: 25 August 2019
Orbit: 618 x 652 km, 82.5° (Epoch: 23 September)

Event Time Altitude Azimuth Distance (km) Brightness Sun altitude
Rises 23:37:32 0° 346° (NNW) 2,891 7.2 -21.0°
Reaches altitude 10° 23:39:47 10° 342° (NNW) 1,988 6.4 -21.5°
Maximum altitude 23:44:06 55° 264° (W) 755 4.3 -22.5°
Drops below altitude 10° 23:48:26 10° 186° (S) 2,003 6.2 -23.5°
Sets 23:50:43 0° 181° (S) 2,915 7.0 -24.0°
